ZB2YN-13 Weather Reports


time (UTC)temp
F
wind
direction
speed
knots
gust
knots
rain 1hr
in
rain 24hr
in
rain mn
in
humidity
%
barometer
mb
20260508080005 62 345 3.5 7.0 0.00 0.00 0.00 82 1004.5
20260508070006 61 297 1.7 5.2 0.00 0.00 0.00 81 1004.3
20260508060005 61 220 0.9 1.7 0.00 0.00 0.00 81 1004.1
20260508050005 61 101 0.0 1.7 0.00 0.00 0.00 80 1003.1
20260508040005 62 98 1.7 5.2 0.00 0.00 0.00 79 1002.9
20260508030006 61 358 0.9 2.6 0.00 0.00 0.00 78 1003.6
20260508020006 60 325 0.0 0.9 0.00 0.00 0.00 82 1003.5
20260508010005 61 250 0.0 1.7 0.00 0.00 0.00 78 1003.6
20260508000005 61 91 0.0 0.9 0.00 0.00 0.00 73 1004.0
20260507230005 62 195 0.9 0.9 0.00 0.00 0.00 77 1004.9
20260507220006 62 169 0.0 1.7 0.00 0.00 0.00 76 1004.9
20260507210006 63 187 0.9 1.7 0.00 0.00 0.00 76 1004.8
20260507200005 64 240 1.7 3.5 0.00 0.00 0.00 70 1004.1
20260507190006 67 220 1.7 3.5 0.00 0.00 0.00 58 1003.2
20260507180005 70 187 2.6 5.2 0.00 0.00 0.00 53 1002.9
20260507170006 72 193 2.6 6.1 0.00 0.00 0.00 52 1002.7
20260507160006 73 175 1.7 3.5 0.00 0.00 0.00 48 1002.4
20260507150006 74 202 1.7 7.0 0.00 0.00 0.00 47 1002.7
20260507140006 74 197 2.6 6.1 0.00 0.00 0.00 50 1003.1
20260507130005 72 216 2.6 6.1 0.00 0.00 0.00 53 1003.6
20260507120006 70 193 2.6 6.1 0.00 0.00 0.00 56 1004.1
20260507110005 70 187 2.6 5.2 0.00 0.00 0.00 58 1004.2
20260507100005 67 176 3.5 9.6 0.00 0.00 0.00 69 1004.3
20260507090006 65 215 2.6 6.1 0.00 0.00 0.00 72 1004.3